<?xml version="1.0"?>
<gpx xmlns="http://www.topografix.com/GPX/1/1" xmlns:xsi="http://www.w3.org/2001/XMLSchema-instance" version="1.1" creator="GPX RubyGem 1.0.0 -- http://dougfales.github.io/gpx/" xsi:schemaLocation="http://www.topografix.com/GPX/1/1 http://www.topografix.com/GPX/1/1/gpx.xsd">
  <metadata>
    <name/>
    <time>2026-05-08T07:39:08+00:00</time>
    <bound minlat="90.0" minlon="180.0" maxlat="-90.0" maxlon="-180.0"/>
  </metadata>
  <trk>
    <name/>
    <trkseg>
      <trkpt lat="45.80176" lon="7.911225">
        <time>1970-01-01T00:00:00+00:00</time>
        <ele>1489.0</ele>
      </trkpt>
      <trkpt lat="45.801759" lon="7.911224">
        <time>1970-01-01T00:00:00+00:00</time>
        <ele>1489.0</ele>
      </trkpt>
      <trkpt lat="45.801428" lon="7.911218">
        <time>1970-01-01T00:00:00+00:00</time>
        <ele>1484.0</ele>
      </trkpt>
      <trkpt lat="45.80134" lon="7.911132">
        <time>1970-01-01T00:00:00+00:00</time>
        <ele>1483.0</ele>
      </trkpt>
      <trkpt lat="45.801274" lon="7.911034">
        <time>1970-01-01T00:00:00+00:00</time>
        <ele>1482.0</ele>
      </trkpt>
      <trkpt lat="45.801281" lon="7.910893">
        <time>1970-01-01T00:00:00+00:00</time>
        <ele>1484.0</ele>
      </trkpt>
      <trkpt lat="45.801238" lon="7.910543">
        <time>1970-01-01T00:00:00+00:00</time>
        <ele>1491.0</ele>
      </trkpt>
      <trkpt lat="45.801189" lon="7.910384">
        <time>1970-01-01T00:00:00+00:00</time>
        <ele>1495.0</ele>
      </trkpt>
      <trkpt lat="45.800898" lon="7.909982">
        <time>1970-01-01T00:00:00+00:00</time>
        <ele>1496.0</ele>
      </trkpt>
      <trkpt lat="45.80081" lon="7.909919">
        <time>1970-01-01T00:00:00+00:00</time>
        <ele>1497.0</ele>
      </trkpt>
      <trkpt lat="45.800729" lon="7.909754">
        <time>1970-01-01T00:00:00+00:00</time>
        <ele>1500.0</ele>
      </trkpt>
      <trkpt lat="45.800597" lon="7.909646">
        <time>1970-01-01T00:00:00+00:00</time>
        <ele>1500.0</ele>
      </trkpt>
      <trkpt lat="45.800464" lon="7.909493">
        <time>1970-01-01T00:00:00+00:00</time>
        <ele>1502.0</ele>
      </trkpt>
      <trkpt lat="45.800317" lon="7.909366">
        <time>1970-01-01T00:00:00+00:00</time>
        <ele>1504.0</ele>
      </trkpt>
      <trkpt lat="45.800183" lon="7.909084">
        <time>1970-01-01T00:00:00+00:00</time>
        <ele>1515.0</ele>
      </trkpt>
      <trkpt lat="45.800152" lon="7.909091">
        <time>1970-01-01T00:00:00+00:00</time>
        <ele>1514.0</ele>
      </trkpt>
      <trkpt lat="45.79993" lon="7.908989">
        <time>1970-01-01T00:00:00+00:00</time>
        <ele>1517.0</ele>
      </trkpt>
      <trkpt lat="45.799771" lon="7.909036">
        <time>1970-01-01T00:00:00+00:00</time>
        <ele>1513.0</ele>
      </trkpt>
      <trkpt lat="45.799623" lon="7.908981">
        <time>1970-01-01T00:00:00+00:00</time>
        <ele>1515.0</ele>
      </trkpt>
      <trkpt lat="45.799496" lon="7.908898">
        <time>1970-01-01T00:00:00+00:00</time>
        <ele>1518.0</ele>
      </trkpt>
      <trkpt lat="45.799273" lon="7.908885">
        <time>1970-01-01T00:00:00+00:00</time>
        <ele>1519.0</ele>
      </trkpt>
      <trkpt lat="45.799121" lon="7.908819">
        <time>1970-01-01T00:00:00+00:00</time>
        <ele>1522.0</ele>
      </trkpt>
      <trkpt lat="45.799103" lon="7.908779">
        <time>1970-01-01T00:00:00+00:00</time>
        <ele>1524.0</ele>
      </trkpt>
      <trkpt lat="45.79887" lon="7.908705">
        <time>1970-01-01T00:00:00+00:00</time>
        <ele>1523.0</ele>
      </trkpt>
      <trkpt lat="45.798816" lon="7.908658">
        <time>1970-01-01T00:00:00+00:00</time>
        <ele>1523.0</ele>
      </trkpt>
      <trkpt lat="45.798673" lon="7.908403">
        <time>1970-01-01T00:00:00+00:00</time>
        <ele>1525.0</ele>
      </trkpt>
      <trkpt lat="45.798498" lon="7.908295">
        <time>1970-01-01T00:00:00+00:00</time>
        <ele>1526.0</ele>
      </trkpt>
      <trkpt lat="45.798319" lon="7.908084">
        <time>1970-01-01T00:00:00+00:00</time>
        <ele>1528.0</ele>
      </trkpt>
      <trkpt lat="45.798261" lon="7.908056">
        <time>1970-01-01T00:00:00+00:00</time>
        <ele>1528.0</ele>
      </trkpt>
      <trkpt lat="45.798107" lon="7.907878">
        <time>1970-01-01T00:00:00+00:00</time>
        <ele>1527.0</ele>
      </trkpt>
      <trkpt lat="45.798023" lon="7.907463">
        <time>1970-01-01T00:00:00+00:00</time>
        <ele>1530.0</ele>
      </trkpt>
      <trkpt lat="45.797923" lon="7.907289">
        <time>1970-01-01T00:00:00+00:00</time>
        <ele>1531.0</ele>
      </trkpt>
      <trkpt lat="45.79769" lon="7.906703">
        <time>1970-01-01T00:00:00+00:00</time>
        <ele>1546.0</ele>
      </trkpt>
      <trkpt lat="45.797664" lon="7.906594">
        <time>1970-01-01T00:00:00+00:00</time>
        <ele>1549.0</ele>
      </trkpt>
      <trkpt lat="45.797598" lon="7.906481">
        <time>1970-01-01T00:00:00+00:00</time>
        <ele>1551.0</ele>
      </trkpt>
      <trkpt lat="45.797418" lon="7.906245">
        <time>1970-01-01T00:00:00+00:00</time>
        <ele>1548.0</ele>
      </trkpt>
      <trkpt lat="45.797307" lon="7.906244">
        <time>1970-01-01T00:00:00+00:00</time>
        <ele>1543.0</ele>
      </trkpt>
      <trkpt lat="45.797234" lon="7.906162">
        <time>1970-01-01T00:00:00+00:00</time>
        <ele>1541.0</ele>
      </trkpt>
      <trkpt lat="45.797147" lon="7.906099">
        <time>1970-01-01T00:00:00+00:00</time>
        <ele>1540.0</ele>
      </trkpt>
      <trkpt lat="45.79707" lon="7.905991">
        <time>1970-01-01T00:00:00+00:00</time>
        <ele>1540.0</ele>
      </trkpt>
      <trkpt lat="45.796951" lon="7.905891">
        <time>1970-01-01T00:00:00+00:00</time>
        <ele>1539.0</ele>
      </trkpt>
      <trkpt lat="45.796807" lon="7.905686">
        <time>1970-01-01T00:00:00+00:00</time>
        <ele>1540.0</ele>
      </trkpt>
      <trkpt lat="45.796802" lon="7.905596">
        <time>1970-01-01T00:00:00+00:00</time>
        <ele>1542.0</ele>
      </trkpt>
      <trkpt lat="45.796757" lon="7.90548">
        <time>1970-01-01T00:00:00+00:00</time>
        <ele>1543.0</ele>
      </trkpt>
      <trkpt lat="45.796566" lon="7.905136">
        <time>1970-01-01T00:00:00+00:00</time>
        <ele>1552.0</ele>
      </trkpt>
      <trkpt lat="45.796484" lon="7.905011">
        <time>1970-01-01T00:00:00+00:00</time>
        <ele>1557.0</ele>
      </trkpt>
      <trkpt lat="45.796461" lon="7.904985">
        <time>1970-01-01T00:00:00+00:00</time>
        <ele>1558.0</ele>
      </trkpt>
      <trkpt lat="45.796333" lon="7.904979">
        <time>1970-01-01T00:00:00+00:00</time>
        <ele>1554.0</ele>
      </trkpt>
      <trkpt lat="45.796322" lon="7.904941">
        <time>1970-01-01T00:00:00+00:00</time>
        <ele>1556.0</ele>
      </trkpt>
      <trkpt lat="45.796481" lon="7.904839">
        <time>1970-01-01T00:00:00+00:00</time>
        <ele>1565.0</ele>
      </trkpt>
      <trkpt lat="45.796594" lon="7.904666">
        <time>1970-01-01T00:00:00+00:00</time>
        <ele>1570.0</ele>
      </trkpt>
      <trkpt lat="45.796594" lon="7.904666">
        <time>1970-01-01T00:00:00+00:00</time>
        <ele>1570.0</ele>
      </trkpt>
      <trkpt lat="45.796481" lon="7.904839">
        <time>1970-01-01T00:00:00+00:00</time>
        <ele>1565.0</ele>
      </trkpt>
      <trkpt lat="45.796322" lon="7.904941">
        <time>1970-01-01T00:00:00+00:00</time>
        <ele>1556.0</ele>
      </trkpt>
      <trkpt lat="45.796333" lon="7.904979">
        <time>1970-01-01T00:00:00+00:00</time>
        <ele>1554.0</ele>
      </trkpt>
      <trkpt lat="45.796461" lon="7.904985">
        <time>1970-01-01T00:00:00+00:00</time>
        <ele>1558.0</ele>
      </trkpt>
      <trkpt lat="45.796484" lon="7.905011">
        <time>1970-01-01T00:00:00+00:00</time>
        <ele>1557.0</ele>
      </trkpt>
      <trkpt lat="45.79641" lon="7.905036">
        <time>1970-01-01T00:00:00+00:00</time>
        <ele>1554.0</ele>
      </trkpt>
      <trkpt lat="45.79632" lon="7.905206">
        <time>1970-01-01T00:00:00+00:00</time>
        <ele>1546.0</ele>
      </trkpt>
      <trkpt lat="45.796223" lon="7.905344">
        <time>1970-01-01T00:00:00+00:00</time>
        <ele>1539.0</ele>
      </trkpt>
      <trkpt lat="45.796138" lon="7.905368">
        <time>1970-01-01T00:00:00+00:00</time>
        <ele>1537.0</ele>
      </trkpt>
      <trkpt lat="45.796006" lon="7.905573">
        <time>1970-01-01T00:00:00+00:00</time>
        <ele>1537.0</ele>
      </trkpt>
      <trkpt lat="45.796009" lon="7.905662">
        <time>1970-01-01T00:00:00+00:00</time>
        <ele>1537.0</ele>
      </trkpt>
      <trkpt lat="45.796063" lon="7.905902">
        <time>1970-01-01T00:00:00+00:00</time>
        <ele>1542.0</ele>
      </trkpt>
      <trkpt lat="45.796068" lon="7.905999">
        <time>1970-01-01T00:00:00+00:00</time>
        <ele>1544.0</ele>
      </trkpt>
      <trkpt lat="45.796121" lon="7.906027">
        <time>1970-01-01T00:00:00+00:00</time>
        <ele>1543.0</ele>
      </trkpt>
      <trkpt lat="45.796204" lon="7.906286">
        <time>1970-01-01T00:00:00+00:00</time>
        <ele>1544.0</ele>
      </trkpt>
      <trkpt lat="45.796361" lon="7.906475">
        <time>1970-01-01T00:00:00+00:00</time>
        <ele>1540.0</ele>
      </trkpt>
      <trkpt lat="45.796555" lon="7.906787">
        <time>1970-01-01T00:00:00+00:00</time>
        <ele>1541.0</ele>
      </trkpt>
      <trkpt lat="45.796679" lon="7.907019">
        <time>1970-01-01T00:00:00+00:00</time>
        <ele>1544.0</ele>
      </trkpt>
      <trkpt lat="45.796816" lon="7.90706">
        <time>1970-01-01T00:00:00+00:00</time>
        <ele>1541.0</ele>
      </trkpt>
      <trkpt lat="45.796926" lon="7.907255">
        <time>1970-01-01T00:00:00+00:00</time>
        <ele>1542.0</ele>
      </trkpt>
      <trkpt lat="45.796958" lon="7.907368">
        <time>1970-01-01T00:00:00+00:00</time>
        <ele>1544.0</ele>
      </trkpt>
      <trkpt lat="45.797006" lon="7.907447">
        <time>1970-01-01T00:00:00+00:00</time>
        <ele>1543.0</ele>
      </trkpt>
      <trkpt lat="45.797037" lon="7.907473">
        <time>1970-01-01T00:00:00+00:00</time>
        <ele>1542.0</ele>
      </trkpt>
      <trkpt lat="45.797155" lon="7.907691">
        <time>1970-01-01T00:00:00+00:00</time>
        <ele>1540.0</ele>
      </trkpt>
      <trkpt lat="45.79726" lon="7.907841">
        <time>1970-01-01T00:00:00+00:00</time>
        <ele>1536.0</ele>
      </trkpt>
      <trkpt lat="45.797337" lon="7.908009">
        <time>1970-01-01T00:00:00+00:00</time>
        <ele>1532.0</ele>
      </trkpt>
      <trkpt lat="45.797358" lon="7.908109">
        <time>1970-01-01T00:00:00+00:00</time>
        <ele>1531.0</ele>
      </trkpt>
      <trkpt lat="45.797486" lon="7.908318">
        <time>1970-01-01T00:00:00+00:00</time>
        <ele>1521.0</ele>
      </trkpt>
      <trkpt lat="45.7976" lon="7.908805">
        <time>1970-01-01T00:00:00+00:00</time>
        <ele>1513.0</ele>
      </trkpt>
      <trkpt lat="45.797813" lon="7.909096">
        <time>1970-01-01T00:00:00+00:00</time>
        <ele>1510.0</ele>
      </trkpt>
      <trkpt lat="45.798045" lon="7.909621">
        <time>1970-01-01T00:00:00+00:00</time>
        <ele>1501.0</ele>
      </trkpt>
      <trkpt lat="45.798238" lon="7.909882">
        <time>1970-01-01T00:00:00+00:00</time>
        <ele>1497.0</ele>
      </trkpt>
      <trkpt lat="45.798278" lon="7.909977">
        <time>1970-01-01T00:00:00+00:00</time>
        <ele>1496.0</ele>
      </trkpt>
      <trkpt lat="45.798301" lon="7.910101">
        <time>1970-01-01T00:00:00+00:00</time>
        <ele>1495.0</ele>
      </trkpt>
      <trkpt lat="45.798335" lon="7.910166">
        <time>1970-01-01T00:00:00+00:00</time>
        <ele>1495.0</ele>
      </trkpt>
      <trkpt lat="45.798436" lon="7.910258">
        <time>1970-01-01T00:00:00+00:00</time>
        <ele>1494.0</ele>
      </trkpt>
      <trkpt lat="45.798551" lon="7.910529">
        <time>1970-01-01T00:00:00+00:00</time>
        <ele>1496.0</ele>
      </trkpt>
      <trkpt lat="45.798615" lon="7.910584">
        <time>1970-01-01T00:00:00+00:00</time>
        <ele>1496.0</ele>
      </trkpt>
      <trkpt lat="45.798745" lon="7.910579">
        <time>1970-01-01T00:00:00+00:00</time>
        <ele>1496.0</ele>
      </trkpt>
      <trkpt lat="45.798878" lon="7.91054">
        <time>1970-01-01T00:00:00+00:00</time>
        <ele>1495.0</ele>
      </trkpt>
      <trkpt lat="45.799049" lon="7.910405">
        <time>1970-01-01T00:00:00+00:00</time>
        <ele>1494.0</ele>
      </trkpt>
      <trkpt lat="45.799173" lon="7.910412">
        <time>1970-01-01T00:00:00+00:00</time>
        <ele>1494.0</ele>
      </trkpt>
      <trkpt lat="45.799239" lon="7.910509">
        <time>1970-01-01T00:00:00+00:00</time>
        <ele>1495.0</ele>
      </trkpt>
      <trkpt lat="45.799412" lon="7.910579">
        <time>1970-01-01T00:00:00+00:00</time>
        <ele>1493.0</ele>
      </trkpt>
      <trkpt lat="45.799517" lon="7.910656">
        <time>1970-01-01T00:00:00+00:00</time>
        <ele>1493.0</ele>
      </trkpt>
      <trkpt lat="45.799562" lon="7.910785">
        <time>1970-01-01T00:00:00+00:00</time>
        <ele>1494.0</ele>
      </trkpt>
      <trkpt lat="45.799691" lon="7.910925">
        <time>1970-01-01T00:00:00+00:00</time>
        <ele>1493.0</ele>
      </trkpt>
      <trkpt lat="45.799836" lon="7.910988">
        <time>1970-01-01T00:00:00+00:00</time>
        <ele>1493.0</ele>
      </trkpt>
      <trkpt lat="45.799879" lon="7.911039">
        <time>1970-01-01T00:00:00+00:00</time>
        <ele>1493.0</ele>
      </trkpt>
      <trkpt lat="45.800079" lon="7.911116">
        <time>1970-01-01T00:00:00+00:00</time>
        <ele>1491.0</ele>
      </trkpt>
      <trkpt lat="45.800129" lon="7.911223">
        <time>1970-01-01T00:00:00+00:00</time>
        <ele>1491.0</ele>
      </trkpt>
      <trkpt lat="45.800188" lon="7.911168">
        <time>1970-01-01T00:00:00+00:00</time>
        <ele>1490.0</ele>
      </trkpt>
      <trkpt lat="45.800327" lon="7.911106">
        <time>1970-01-01T00:00:00+00:00</time>
        <ele>1488.0</ele>
      </trkpt>
      <trkpt lat="45.800515" lon="7.911103">
        <time>1970-01-01T00:00:00+00:00</time>
        <ele>1485.0</ele>
      </trkpt>
      <trkpt lat="45.800619" lon="7.911161">
        <time>1970-01-01T00:00:00+00:00</time>
        <ele>1484.0</ele>
      </trkpt>
      <trkpt lat="45.800749" lon="7.911122">
        <time>1970-01-01T00:00:00+00:00</time>
        <ele>1481.0</ele>
      </trkpt>
      <trkpt lat="45.800818" lon="7.911138">
        <time>1970-01-01T00:00:00+00:00</time>
        <ele>1480.0</ele>
      </trkpt>
      <trkpt lat="45.800928" lon="7.911227">
        <time>1970-01-01T00:00:00+00:00</time>
        <ele>1479.0</ele>
      </trkpt>
      <trkpt lat="45.801021" lon="7.911243">
        <time>1970-01-01T00:00:00+00:00</time>
        <ele>1479.0</ele>
      </trkpt>
      <trkpt lat="45.801118" lon="7.911186">
        <time>1970-01-01T00:00:00+00:00</time>
        <ele>1479.0</ele>
      </trkpt>
      <trkpt lat="45.801152" lon="7.911144">
        <time>1970-01-01T00:00:00+00:00</time>
        <ele>1479.0</ele>
      </trkpt>
      <trkpt lat="45.801265" lon="7.911119">
        <time>1970-01-01T00:00:00+00:00</time>
        <ele>1481.0</ele>
      </trkpt>
      <trkpt lat="45.801339" lon="7.9112">
        <time>1970-01-01T00:00:00+00:00</time>
        <ele>1483.0</ele>
      </trkpt>
      <trkpt lat="45.801428" lon="7.911218">
        <time>1970-01-01T00:00:00+00:00</time>
        <ele>1484.0</ele>
      </trkpt>
      <trkpt lat="45.801759" lon="7.911224">
        <time>1970-01-01T00:00:00+00:00</time>
        <ele>1489.0</ele>
      </trkpt>
      <trkpt lat="45.80176" lon="7.911225">
        <time>1970-01-01T00:00:00+00:00</time>
        <ele>1489.0</ele>
      </trkpt>
    </trkseg>
  </trk>
</gpx>
